Retour au catalogue

CZ-6A DEB

ActifPO
NORAD 60793·DEBRIS·🇨🇳 China

Lancé Aug 6, 2024 depuis Taiyuan Satellite Launch Center

Loading…

Prochains Passages (prochaines 24 heures)

TLE

FraisSource: Space-Track

Époque: Sep 14, 2026, 17:34 UTC

1 60793U 24140FU  26257.73233937  .00000074  00000-0  31058-4 0  9997
2 60793  89.0245 268.0181 0064832 270.0506  89.3252 14.14284100107938

Suivez CZ-6A DEB en temps réel avec AllMySat

Download on the App Store